Showing default

FORGESTAR-1, 64546

Orbit data source: Space-Track

FORGESTAR-1, 64546 is a payload satellite owned by Space Forge (UK) in SSO that was launched on Mon, 23 Jun 2025 UTC via an FALCON 9 launch vehicle from the Air Force Western Test Range (AFWTR). Payload-class satellites include a variety of spacecraft equipped with specific instruments for various scientific and technological missions. These include communications satellites like Starlink; space stations such as the ISS; scientific satellites like the Hubble; Earth observation satellites from companies like Planet Labs, Umbra, and HawkEye 360; GPS; miniature CubeSats for education and research; and military/defense satellites.

Loading next visibility...
Identifier
64546, 2025-135U
Orbit
SSO
Country
Flag of UKUK
Related business
Manufacturer
Space Forge
Mission
Operational Commercial Microgravity
Bus & Motor
FORGESTAR, Unknown motor
Mass
~30 kg wet, ~30 kg dry
Launch date (UTC)
2025-06-23 (11 months ago)
Launch vehicle
FALCON 9
Launch site
Air Force Western Test Range (AFWTR)
Object type
Payload
Rocket body
Debris
Shape & HBR
Box, 0.3 m
Radar Cross Section
0.225 m², Medium (>0.1 m² and < 1m²)

Expand to show TLE details & history
Last TLE update: 11 hours ago

TLE from 11 hours ago
0 FORGESTAR-1
1 64546U 25135U   26133.10727523  .00004496  00000-0  19061-3 0  9996
2 64546  97.4645 249.0434 0000676  73.7715 286.3596 15.23643049 49567
Epoch: 2026-05-13T02:34Z
TLE epoch observation values (Epoch: 2026-05-13T02:34:28.579Z)
Latitude
-0.00007°
Longitude
-20.44772°
Altitude
497.826 km
Speed
7.616 km/s
True Right ascension
16h 36m 10s
True Declination
0° 00' 00"
Sunlit
Object was in full shadow at epoch
Visualization orbit readout
Latitude
Unknown
Longitude
Unknown
Altitude
Unknown
Speed
Unknown
Apparent Right ascension
Unknown
Apparent Declination
Unknown
Sunlit
N/A
Visualization observer readout
Local Sidereal Time
22:07:19
Azimuth
Unknown
Elevation
Unknown
Doppler factor
Unknown
Orbital elements
Apogee altitude
492.291 km
Perigee altitude
491.362 km
Semi-major axis
6,869.964 km
Eccentricity
0.00007
Inclination
97.4645°
RAAN
249.0434°
Arg. of periapsis
73.7715°
True anomaly
286.35217°
Mean anomaly
286.3596°
Eccentric anomaly
286.35588°
Mean motion
3.81164 °/min
Orbital period
94.45 mins
BSTAR
0.00019061
Loading maneuver chart data...
Computing Atmospheric mass density...
Loading historical data...
Loading historical data...
Loading historical data...
Loading historical data...
Loading historical data...
Loading historical data...
Loading historical data...

Documentation

Showing up to 5 results
|